Location: Hilton Head Island
(32.2163°N, 80.7526°W)
Time: 00:13:08
(UTC-05:00)

Vanguard 1 - Pass Details

Date: 20 February 2026
Orbit: 653 x 3818 km, 34.2° (Epoch: 5 March)

Event Time Altitude Azimuth Distance (km) Brightness Sun altitude
Rises 19:57:23 0° 287° (WNW) 6,039 15.4 -22.6°
Reaches altitude 10° 20:00:43 10° 285° (WNW) 5,364 14.8 -23.4°
Maximum altitude 20:18:31 72° 206° (SSW) 3,701 12.8 -27.1°
Enters shadow 20:34:10 29° 132° (SE) 5,463 13.3 -30.4°
Drops below altitude 10° 20:42:00 10° 127° (SE) 6,759 - -32.0°
Sets 20:46:54 0° 125° (SE) 7,597 - -33.1°
